Location: Wanzleben
(52.0609°N, 11.4408°E)
Time: 07:12:08
(UTC+00:00)

Okean 1 Rocket - Pass Details

Date: 18 September 2020
Orbit: 606 x 635 km, 82.5° (Epoch: 19 October)

Event Time Altitude Azimuth Distance (km) Brightness Sun altitude
Exits shadow 19:51:20 41° 194° (SSW) 919 3.7 -22.4°
Maximum altitude 19:52:52 86° 280° (W) 645 3.0 -22.6°
Drops below altitude 10° 19:57:25 10° 10° (N) 2,035 6.0 -23.2°
Sets 19:59:40 0° 11° (N) 2,948 6.9 -23.5°
